TimeCET,TemperatureF,Dew PointF,Humidity,Sea Level PressureIn,VisibilityMPH,Wind Direction,Wind SpeedMPH,Gust SpeedMPH,PrecipitationIn,Events,Conditions,WindDirDegrees,DateUTC
12:00 AM,35.6,35.6,100,29.50,2.5,NE,6.9,-,N/A,,Overcast,50,2013-01-20 23:00:00
12:30 AM,35.6,35.6,100,29.50,2.5,NE,8.1,-,N/A,,Overcast,50,2013-01-20 23:30:00
1:00 AM,35.6,35.6,100,29.50,2.5,NE,5.8,-,N/A,,Overcast,50,2013-01-21 00:00:00
1:30 AM,35.6,35.6,100,29.50,2.5,Variable,3.5,-,N/A,,Overcast,0,2013-01-21 00:30:00
2:00 AM,35.6,35.6,100,29.47,2.5,NNE,4.6,-,N/A,Rain,Light Rain,30,2013-01-21 01:00:00
2:30 AM,35.6,35.6,100,29.47,2.2,ENE,4.6,-,N/A,Rain,Light Rain,70,2013-01-21 01:30:00
3:00 AM,35.6,35.6,100,29.47,-9999.0,NE,6.9,-,N/A,,Mostly Cloudy,50,2013-01-21 02:00:00
3:30 AM,35.6,35.6,100,29.47,1.9,ENE,6.9,-,N/A,,Mist,60,2013-01-21 02:30:00
4:00 AM,35.6,35.6,100,29.47,1.6,NE,5.8,-,N/A,,Scattered Clouds,50,2013-01-21 03:00:00
4:30 AM,33.8,33.8,100,29.47,1.4,ENE,4.6,-,N/A,,Mostly Cloudy,70,2013-01-21 03:30:00
5:00 AM,33.8,33.8,100,29.47,1.2,Variable,2.3,-,N/A,,Scattered Clouds,0,2013-01-21 04:00:00
5:30 AM,33.8,33.8,100,29.44,1.1,Variable,2.3,-,N/A,,Scattered Clouds,0,2013-01-21 04:30:00
6:00 AM,33.8,33.8,100,29.44,1.1,Variable,1.2,-,N/A,,Scattered Clouds,0,2013-01-21 05:00:00
6:30 AM,33.8,33.8,100,29.44,1.4,Variable,3.5,-,N/A,,Scattered Clouds,0,2013-01-21 05:30:00
7:00 AM,33.8,33.8,100,29.44,1.6,ENE,5.8,-,N/A,,Scattered Clouds,70,2013-01-21 06:00:00
7:30 AM,35.6,35.6,100,29.44,1.6,Variable,1.2,-,N/A,,Mostly Cloudy,0,2013-01-21 06:30:00
8:00 AM,35.6,35.6,100,29.44,1.9,Variable,1.2,-,N/A,,Mostly Cloudy,0,2013-01-21 07:00:00
8:30 AM,35.6,35.6,100,29.44,2.2,Variable,2.3,-,N/A,,Mostly Cloudy,0,2013-01-21 07:30:00
9:00 AM,35.6,35.6,100,29.44,2.2,Variable,3.5,-,N/A,Rain,Light Rain,0,2013-01-21 08:00:00
9:30 AM,37.4,37.4,100,29.44,2.2,Variable,2.3,-,N/A,,Mostly Cloudy,0,2013-01-21 08:30:00
10:00 AM,37.4,37.4,100,29.44,2.2,North,4.6,-,N/A,Rain,Light Rain,360,2013-01-21 09:00:00
10:30 AM,37.4,37.4,100,29.44,2.2,NNW,4.6,-,N/A,Rain,Light Rain,340,2013-01-21 09:30:00
11:00 AM,39.2,39.2,100,29.44,2.2,Variable,3.5,-,N/A,Rain,Light Rain,0,2013-01-21 10:00:00
11:30 AM,39.2,39.2,100,29.44,2.2,NE,8.1,-,N/A,Rain,Light Rain,40,2013-01-21 10:30:00
12:00 PM,41.0,41.0,100,29.44,2.2,Variable,3.5,-,N/A,Rain,Light Rain,0,2013-01-21 11:00:00
12:30 PM,41.0,41.0,100,29.44,2.2,East,6.9,-,N/A,Rain,Light Rain,80,2013-01-21 11:30:00
1:00 PM,41.0,41.0,100,29.42,2.2,NNE,4.6,-,N/A,Rain,Light Rain,30,2013-01-21 12:00:00
1:30 PM,41.0,41.0,100,29.42,1.7,NE,5.8,-,N/A,Rain,Light Rain,40,2013-01-21 12:30:00
2:00 PM,41.0,41.0,100,29.42,2.5,ENE,6.9,-,N/A,Rain,Light Rain,60,2013-01-21 13:00:00
2:30 PM,41.0,41.0,100,29.42,2.5,ENE,8.1,-,N/A,Rain,Light Rain,70,2013-01-21 13:30:00
3:00 PM,41.0,41.0,100,29.42,2.8,ENE,6.9,-,N/A,,Mostly Cloudy,60,2013-01-21 14:00:00
3:30 PM,42.8,42.8,100,29.39,2.5,ENE,4.6,-,N/A,,Mostly Cloudy,60,2013-01-21 14:30:00
4:00 PM,42.8,42.8,100,29.42,1.7,Variable,3.5,-,N/A,,Mostly Cloudy,0,2013-01-21 15:00:00
4:30 PM,41.0,41.0,100,29.42,1.2,North,4.6,-,N/A,Rain,Light Rain,350,2013-01-21 15:30:00
5:00 PM,39.2,39.2,100,29.42,1.1,NW,4.6,-,N/A,Rain,Light Rain,310,2013-01-21 16:00:00
5:30 PM,41.0,41.0,100,29.42,1.6,Variable,3.5,-,N/A,Fog,Patches of Fog,0,2013-01-21 16:30:00
6:00 PM,39.2,39.2,100,29.42,2.2,Variable,1.2,-,N/A,Rain,Light Rain,0,2013-01-21 17:00:00
6:30 PM,39.2,39.2,100,29.39,1.2,NW,4.6,-,N/A,Rain,Light Rain,310,2013-01-21 17:30:00
7:00 PM,39.2,39.2,100,29.39,1.2,Variable,3.5,-,N/A,,Mostly Cloudy,0,2013-01-21 18:00:00
7:30 PM,39.2,39.2,100,29.42,1.2,Variable,3.5,-,N/A,Rain,Light Rain,0,2013-01-21 18:30:00
8:00 PM,39.2,39.2,100,29.42,0.9,Variable,3.5,-,N/A,Rain,Light Rain,0,2013-01-21 19:00:00
8:30 PM,39.2,39.2,100,29.42,0.8,WNW,6.9,-,N/A,Rain,Light Rain,300,2013-01-21 19:30:00
9:00 PM,39.2,39.2,100,29.42,0.8,NW,6.9,-,N/A,Rain,Light Rain,310,2013-01-21 20:00:00
9:30 PM,39.2,39.2,100,29.42,0.8,NNW,10.4,-,N/A,Rain,Light Rain,330,2013-01-21 20:30:00
10:00 PM,39.2,39.2,100,29.42,0.9,NNW,6.9,-,N/A,,Mostly Cloudy,340,2013-01-21 21:00:00
10:30 PM,39.2,39.2,100,29.42,0.9,NNW,8.1,-,N/A,,Mostly Cloudy,330,2013-01-21 21:30:00
11:00 PM,39.2,39.2,100,29.39,1.2,NNW,8.1,-,N/A,,Overcast,330,2013-01-21 22:00:00
11:30 PM,39.2,39.2,100,29.42,1.9,NNW,4.6,-,N/A,,Overcast,330,2013-01-21 22:30:00